Hourly Weather Ludmilowka

Today, 16 June, Wednesday

Time Temperature Precipitation Wind Pressure Humidity
00:00 +16°C° 0 mm 1 mps 740 mmHg 75%
01:00 +15°C° 0 mm 1 mps 740 mmHg 75%
02:00 +15°C° 0 mm 1 mps 740 mmHg 75%
03:00 +16°C° 0 mm 1 mps 740 mmHg 75%
04:00 +16°C° 0 mm 1 mps 740 mmHg 75%
05:00 +18°C° 0 mm 1 mps 741 mmHg 73%
06:00 +18°C° 0 mm 2 mps 741 mmHg 72%
07:00 +20°C° 0 mm 2 mps 741 mmHg 69%
08:00 +21°C° 0.1 mm 2 mps 741 mmHg 67%
09:00 +23°C° 0.1 mm 2 mps 741 mmHg 64%
10:00 +24°C° 0.1 mm 1 mps 742 mmHg 62%
11:00 +25°C° 0.4 mm 2 mps 741 mmHg 60%
12:00 +25°C° 0.4 mm 2 mps 741 mmHg 59%
13:00 +26°C° 0 mm 2 mps 741 mmHg 57%
14:00 +25°C° 0.4 mm 3 mps 741 mmHg 60%
15:00 +25°C° 0.4 mm 3 mps 741 mmHg 63%
16:00 +24°C° 0.4 mm 3 mps 741 mmHg 66%
17:00 +22°C° 0.2 mm 3 mps 741 mmHg 72%
18:00 +21°C° 0.2 mm 3 mps 742 mmHg 79%
19:00 +20°C° 0.2 mm 2 mps 742 mmHg 85%
20:00 +19°C° 0 mm 2 mps 742 mmHg 87%
21:00 +17°C° 0 mm 2 mps 742 mmHg 90%
22:00 +16°C° 0 mm 2 mps 742 mmHg 92%
23:00 +16°C° 0 mm 2 mps 742 mmHg 92%

Tomorrow, 17 June, Thursday

Time Temperature Precipitation Wind Pressure Humidity
00:00 +15°C° 0 mm 2 mps 742 mmHg 93%
01:00 +15°C° 0 mm 2 mps 743 mmHg 93%
02:00 +15°C° 0 mm 2 mps 743 mmHg 93%
03:00 +14°C° 0 mm 2 mps 742 mmHg 93%
04:00 +14°C° 0 mm 2 mps 742 mmHg 93%
05:00 +16°C° 0 mm 2 mps 743 mmHg 87%
06:00 +18°C° 0 mm 2 mps 743 mmHg 80%
07:00 +19°C° 0 mm 3 mps 743 mmHg 74%
08:00 +20°C° 0 mm 3 mps 744 mmHg 68%
09:00 +22°C° 0 mm 3 mps 744 mmHg 62%
10:00 +24°C° 0 mm 3 mps 744 mmHg 56%
11:00 +25°C° 0 mm 3 mps 744 mmHg 53%
12:00 +25°C° 0 mm 3 mps 744 mmHg 49%
13:00 +26°C° 0 mm 3 mps 744 mmHg 46%
14:00 +26°C° 0 mm 3 mps 744 mmHg 47%
15:00 +26°C° 0 mm 4 mps 743 mmHg 48%
16:00 +25°C° 0 mm 4 mps 743 mmHg 50%
17:00 +23°C° 0 mm 4 mps 743 mmHg 57%
18:00 +21°C° 0 mm 3 mps 743 mmHg 65%
19:00 +20°C° 0 mm 3 mps 743 mmHg 73%
20:00 +19°C° 0 mm 3 mps 743 mmHg 77%
21:00 +18°C° 0 mm 3 mps 744 mmHg 81%
22:00 +17°C° 0 mm 3 mps 744 mmHg 85%
23:00 +17°C° 0 mm 3 mps 744 mmHg 86%

Day after tomorrow, 18 June, Friday

Time Temperature Precipitation Wind Pressure Humidity
00:00 +17°C° 0 mm 3 mps 743 mmHg 88%
01:00 +16°C° 0 mm 3 mps 743 mmHg 90%
02:00 +16°C° 0 mm 3 mps 743 mmHg 90%
03:00 +16°C° 0 mm 3 mps 743 mmHg 91%
04:00 +16°C° 0 mm 3 mps 743 mmHg 92%
05:00 +18°C° 0 mm 3 mps 743 mmHg 85%
06:00 +20°C° 0 mm 4 mps 743 mmHg 78%
07:00 +22°C° 0 mm 4 mps 744 mmHg 72%
08:00 +23°C° 0 mm 5 mps 744 mmHg 66%
09:00 +26°C° 0 mm 5 mps 743 mmHg 61%
10:00 +27°C° 0 mm 5 mps 743 mmHg 55%
11:00 +27°C° 0 mm 5 mps 743 mmHg 54%
12:00 +28°C° 0 mm 5 mps 743 mmHg 53%
13:00 +28°C° 0 mm 5 mps 743 mmHg 52%
14:00 +28°C° 0 mm 5 mps 743 mmHg 53%
15:00 +28°C° 0 mm 5 mps 743 mmHg 55%
16:00 +28°C° 0 mm 5 mps 742 mmHg 57%
17:00 +26°C° 0 mm 4 mps 742 mmHg 63%
18:00 +25°C° 0 mm 4 mps 742 mmHg 70%
19:00 +22°C° 0 mm 4 mps 742 mmHg 76%
20:00 +21°C° 0 mm 4 mps 742 mmHg 81%
21:00 +20°C° 0 mm 3 mps 742 mmHg 85%
22:00 +18°C° 0 mm 3 mps 742 mmHg 89%
23:00 +18°C° 0 mm 3 mps 742 mmHg 91%

19 June, Saturday

Time Temperature Precipitation Wind Pressure Humidity
00:00 +18°C° 0 mm 3 mps 742 mmHg 92%
01:00 +18°C° 0 mm 3 mps 742 mmHg 94%
02:00 +18°C° 0 mm 3 mps 742 mmHg 94%
03:00 +18°C° 0 mm 3 mps 742 mmHg 94%
04:00 +18°C° 0 mm 3 mps 742 mmHg 95%
05:00 +19°C° 0 mm 4 mps 742 mmHg 88%
06:00 +21°C° 0 mm 4 mps 742 mmHg 81%
07:00 +23°C° 0 mm 5 mps 742 mmHg 74%
08:00 +25°C° 0 mm 5 mps 742 mmHg 69%
09:00 +26°C° 0 mm 6 mps 742 mmHg 64%
10:00 +27°C° 0 mm 6 mps 742 mmHg 59%
11:00 +28°C° 0 mm 6 mps 742 mmHg 57%
12:00 +29°C° 0 mm 5 mps 741 mmHg 55%
13:00 +29°C° 0 mm 5 mps 741 mmHg 53%
14:00 +29°C° 0 mm 5 mps 741 mmHg 55%
15:00 +29°C° 0 mm 5 mps 741 mmHg 56%
16:00 +28°C° 0 mm 5 mps 741 mmHg 58%
17:00 +27°C° 0 mm 5 mps 741 mmHg 64%
18:00 +25°C° 0 mm 4 mps 741 mmHg 71%
19:00 +23°C° 0 mm 4 mps 741 mmHg 77%
20:00 +22°C° 0 mm 4 mps 740 mmHg 82%
21:00 +20°C° 0 mm 3 mps 740 mmHg 86%
22:00 +19°C° 0 mm 3 mps 740 mmHg 91%
23:00 +18°C° 0 mm 3 mps 740 mmHg 92%

20 June, Sunday

Time Temperature Precipitation Wind Pressure Humidity
00:00 +18°C° 0 mm 2 mps 740 mmHg 93%
01:00 +17°C° 0 mm 2 mps 740 mmHg 94%
02:00 +17°C° 0 mm 2 mps 740 mmHg 95%
03:00 +17°C° 0 mm 2 mps 740 mmHg 95%
04:00 +17°C° 0 mm 2 mps 740 mmHg 95%
05:00 +18°C° 0 mm 3 mps 740 mmHg 88%
06:00 +20°C° 0 mm 4 mps 740 mmHg 81%
07:00 +22°C° 0 mm 4 mps 740 mmHg 74%
08:00 +23°C° 0 mm 4 mps 740 mmHg 68%
09:00 +26°C° 0 mm 4 mps 740 mmHg 62%
10:00 +27°C° 0 mm 4 mps 740 mmHg 56%
11:00 +28°C° 0 mm 4 mps 740 mmHg 53%
12:00 +28°C° 0 mm 4 mps 740 mmHg 50%
13:00 +29°C° 0 mm 4 mps 740 mmHg 48%
14:00 +29°C° 0 mm 4 mps 739 mmHg 49%
15:00 +29°C° 0 mm 4 mps 739 mmHg 50%
16:00 +29°C° 0 mm 4 mps 739 mmHg 51%
17:00 +27°C° 0 mm 4 mps 739 mmHg 58%
18:00 +26°C° 0 mm 4 mps 739 mmHg 66%
19:00 +23°C° 0 mm 4 mps 738 mmHg 73%
20:00 +22°C° 0 mm 4 mps 738 mmHg 77%
21:00 +21°C° 0 mm 3 mps 738 mmHg 81%
22:00 +20°C° 0 mm 3 mps 738 mmHg 85%
23:00 +19°C° 0 mm 3 mps 738 mmHg 88%

21 June, Monday

Time Temperature Precipitation Wind Pressure Humidity
00:00 +19°C° 0 mm 3 mps 738 mmHg 91%
01:00 +18°C° 0 mm 3 mps 738 mmHg 93%
02:00 +18°C° 0 mm 3 mps 738 mmHg 94%
03:00 +18°C° 0 mm 3 mps 738 mmHg 94%
04:00 +18°C° 0 mm 3 mps 738 mmHg 94%
05:00 +20°C° 0 mm 3 mps 738 mmHg 86%
06:00 +21°C° 0 mm 4 mps 738 mmHg 79%
07:00 +23°C° 0 mm 4 mps 738 mmHg 71%
08:00 +26°C° 0 mm 5 mps 738 mmHg 64%
09:00 +27°C° 0 mm 5 mps 738 mmHg 58%
10:00 +28°C° 0 mm 5 mps 738 mmHg 51%
11:00 +29°C° 0 mm 5 mps 738 mmHg 50%
12:00 +29°C° 0 mm 5 mps 738 mmHg 48%
13:00 +30°C° 0 mm 5 mps 737 mmHg 46%
14:00 +30°C° 0 mm 4 mps 737 mmHg 48%
15:00 +29°C° 0 mm 4 mps 737 mmHg 50%
16:00 +29°C° 0 mm 4 mps 737 mmHg 52%
17:00 +28°C° 0 mm 4 mps 737 mmHg 59%
18:00 +26°C° 0 mm 4 mps 737 mmHg 66%
19:00 +25°C° 0 mm 3 mps 737 mmHg 73%
20:00 +24°C° 0 mm 3 mps 736 mmHg 77%
21:00 +21°C° 0 mm 3 mps 736 mmHg 80%
22:00 +20°C° 0 mm 2 mps 736 mmHg 84%
23:00 +20°C° 0 mm 2 mps 736 mmHg 86%
Show more

We Need Your Consent

Meteoprog and our Service Providers may store and access personal data such as cookies, device identifiers or other similar technologies on your device and process such data to personalise content and ads, as well as provide social media features and to analyse the traffic.

  • Store and/or access information on your device

    Cookies, device identifiers or other information can be stored or accessed on your device for the purposes indicated above.

  • Personalised ads and content, ad and content measurement, audience insights, and products development

    Ads and content can be personalised based on a profile. More data can be added to better personalise ads and content. Ad and content performance can be measured. Insights about the audience who saw the ads and content can be derived. Such data can be used to develop or improve user’s experience, systems and software.

By clicking ‘I Agree’ you will allow the use of indicated cookies, device identifiers, web beacons or other similar technologies. Your settings can be changed in the browser on your device.

For certain purposes, legitimate interests may be relied on, rather than consent. You can read more about this in our Privacy and Cookie Policy.